Home > Weather > Yuzhno-Sakhalinsk > Past weeks

Flag for Russia Weather for the Past 2 Weeks in Yuzhno-Sakhalinsk, Russia

Now
18 °F

Ice fog.


Feels Like: -4 °F
Forecast: -8 / 21 °F
Wind: 38 mph from Northeast

Location: Yuzhno Airport-Sakhalinsk

Current Time: Feb 10, 2016 at 2:51:41 PM

Latest Report: Feb 10, 2016 at 2:00 PM


Visibility: 0 mi

Pressure: 29.83 "Hg

Humidity: 93%

Dew point: 16 °F

Location of Yuzhno-SakhalinskLocation

Historic Weather in Yuzhno-Sakhalinsk — Graph

°F

Yuzhno-Sakhalinsk Temperature Yesterday

Maximum temperature yesterday: 27 °F (at 12:00 PM)
Minimum temperature yesterday: 3 °F (at 2:00 AM)
Average temperature yesterday: 15 °F

High & Low Weather Summary for the Past Weeks

 TemperatureHumidityPressure
High27 °F (Feb 9, 12:00 PM)100% (Feb 9, 8:00 PM)30.27 "Hg (Feb 9, 8:00 PM)
Low-27 °F (Feb 8, 7:00 AM)47% (Jan 30, 2:00 PM)29.62 "Hg (Feb 9, 10:00 PM)
Average3 °F79%29.95 "Hg
* Reported Jan 26 1:30 PM — Feb 10 1:30 PM, Yuzhno-Sakhalinsk, Weather by CustomWeather, © 2016

Note: Actual official high and low records may vary slightly from our data, if they occured in-between our weather recording intervals... More about our weather records

Advertising

Yuzhno-Sakhalinsk Weather History for the Previous 24 Hours

 ConditionsComfort  
Time TempWeatherWind HumidityBarometerVisibility
1:30 PM
Wed, Feb 10
18 °FIce fog.36 mph86%29.83 "Hg0 mi
1:00 PM18 °FIce fog.33 mph93%29.83 "Hg0 mi
12:30 PM18 °FIce fog.33 mph86%29.83 "Hg0 mi
12:00 PM18 °FIce fog.33 mph86%29.80 "Hg0 mi
11:30 AM18 °FIce fog.36 mph86%29.80 "Hg0 mi
10:30 AM18 °FIce fog.36 mph86%29.77 "Hg0 mi
10:00 AM18 °FIce fog.33 mph86%29.77 "Hg0 mi
9:30 AM16 °FIce fog.36 mph93%29.77 "Hg0 mi
9:00 AM16 °FIce fog.38 mph93%29.74 "Hg0 mi
8:30 AM16 °FIce fog.36 mph93%29.74 "Hg0 mi
7:30 AM16 °FIce fog.33 mph93%29.71 "Hg0 mi
7:00 AM16 °FIce fog.38 mph93%29.71 "Hg0 mi
6:30 AM18 °FIce fog.33 mph86%29.68 "Hg0 mi
6:00 AM18 °FIce fog.33 mph93%29.68 "Hg0 mi
5:30 AM18 °FIce fog.36 mph93%29.68 "Hg0 mi
5:00 AM18 °FIce fog.31 mph100%29.68 "Hg0 mi
4:00 AM19 °FIce fog.29 mph93%29.65 "Hg0 mi
3:00 AM21 °FHeavy snow. Ice fog.26 mph93%29.65 "Hg1 mi
2:00 AM21 °FHeavy snow. Ice fog.26 mph93%29.62 "Hg1 mi
1:00 AM21 °FHeavy snow. Ice fog.22 mph100%29.62 "Hg1 mi
12:00 AM23 °FHeavy snow. Ice fog.22 mph93%29.62 "Hg1 mi
11:00 PM
Tue, Feb 9
23 °FHeavy snow. Ice fog.22 mph93%29.62 "Hg1 mi
10:00 PM21 °FSnow showers. Ice fog.17 mph100%29.62 "Hg1 mi
9:30 PM21 °FHeavy snow. Ice fog.17 mph100%29.65 "Hg1 mi
8:30 PM21 °FHeavy snow. Ice fog.22 mph100%29.65 "Hg1 mi
8:00 PM21 °FHeavy snow. Ice fog.22 mph100%29.65 "Hg1 mi
7:30 PM21 °FSnow showers. Ice fog.17 mph93%29.65 "Hg1 mi
7:00 PM21 °FSnow showers. Ice fog.15 mph93%29.65 "Hg1 mi
6:00 PM21 °FSnow showers. Passing clouds.10 mph93%29.68 "Hg1 mi
5:30 PM21 °FSnow showers. Partly sunny.20 mph93%29.68 "Hg1 mi
5:00 PM21 °FSnow showers. Partly sunny.20 mph93%29.71 "Hg1 mi
4:30 PM21 °FSnow flurries. Partly sunny.17 mph86%29.71 "Hg2 mi
4:00 PM21 °FSnow flurries. Partly sunny.15 mph86%29.71 "Hg2 mi
3:30 PM21 °FSnow showers. Ice fog.10 mph93%29.71 "Hg1 mi
2:30 PM23 °FSnow flurries. Partly sunny.8 mph80%29.71 "Hg2 mi
Weather by CustomWeather, © 2016

See weather overviewHow to use our weather pages